RH
100 99 93 60 21 15 11 10 15 20 27 28 45 56 53 44 38 34 32 32 35 35 36 38 47 53 50 43 49 66 69 78 77 59 80 85 80 70 72 75 80 98 92 80
100 100 92 60 37 17 11 11 20 33 32 35 39 39 37 38 36 37 39 42 40 36 39 52 46 45 35 45 50 70 73 82 92 74 67 78 100 93 84 86 86 86 90 81
100 100 93 58 36 20 14 14 30 47 45 36 37 41 45 46 44 38 39 40 42 47 52 50 65 51 37 42 46 45 54 86 75 76 66 71 97 99 95 78 89 78 81 65
100 99 69 69 69 24 20 22 43 48 40 57 50 51 54 60 58 54 48 50 51 60 70 66 66 56 54 53 53 53 70 93 94 82 69 74 59 68 95 93 75 87 69 83
100 99 93 95 90 41 25 29 48 57 68 61 66 63 76 70 63 65 65 72 59 81 84 78 78 78 76 79 69 79 80 88 76 91 75 79 90 75 74 80 73 92 100 92
99 98 99 98 85 45 33 44 50 34 82 91 82 83 75 74 64 59 61 62 76 86 80 71 70 78 80 80 94 90 94 92 93 90 73 91 95 91 86 96 97 96 97 93
100 98 98 96 46 36 38 30 46 63 68 80 70 70 71 68 67 79 66 71 91 84 86 88 83 81 99 97 92 93 92 98 89 91 93 97 90 93 88 92 96 97 96 97
99 98 95 94 71 90 30 37 52 63 90 76 76 82 85 83 83 86 88 84 89 95 87 94 95 82 74 72 81 89 95 93 95 96 84 88 96 94 95 96 98 97 97 98
98 97 95 96 84 67 51 77 84 69 71 95 99 97 97 98 99 84 79 91 82 82 94 95 99 91 74 80 78 64 70 88 96 98 96 93 100 84 97 98 95 99 98 100
98 98 96 91 92 93 92 94 93 81 85 99 98 96 98 98 97 98 88 81 70 84 97 98 98 98 89 99 99 99 90 93 100 99 98 96 90 95 98 99 98 97 100 100
97 95 94 92 100 96 94 97 100 90 85 98 97 94 93 92 91 96 86 79 92 92 98 98 96 97 98 96 100 100 98 100 100 92 100 98 92 93 94 99 98 99 100 100
96 92 96 95 94 92 87 92 100 96 73 97 92 90 89 92 97 95 93 97 95 97 97 97 95 97 94 98 99 91 97 95 98 98 100 100 100 99 100 100 100 100 100 97
92 94 93 97 100 95 80 84 95 90 86 99 96 100 99 80 76 93 95 89 98 96 97 96 96 97 98 100 96 100 90 96 100 98 95 92 98 96 99 100 100 100 100 98
94 99 99 95 98 84 71 83 87 58 66 83 99 100 95 98 74 72 93 98 97 100 96 96 95 95 90 98 96 93 99 99 100 97 93 77 100 90 100 97 99 100 97 99
100 100 96 88 72 74 75 76 78 69 64 91 96 84 100 96 82 68 80 96 98 97 96 96 100 98 90 99 86 100 100 100 100 98 100 100 89 97 100 100 96 92 99 98
100 97 82 72 70 61 57 54 67 69 58 66 97 74 62 96 79 75 66 83 92 94 95 100 100 100 95 99 99 99 100 100 100 95 100 98 84 82 92 100 92 91 100 100
92 76 76 82 73 63 59 94 95 78 59 66 99 84 62 64 75 90 78 63 76 85 93 98 98 95 93 99 100 95 95 94 87 99 100 93 91 100 96 100 94 92 89 92
79 61 39 30 34 48 52 73 96 77 56 52 86 80 64 65 73 90 91 70 64 70 92 89 80 68 73 99 89 96 97 94 76 88 92 98 95 87 90 94 92 94 88 85
54 31 30 26 25 37 59 31 31 46 44 62 81 100 99 73 76 84 86 72 95 68 66 67 69 91 100 91 100 100 94 100 100 100 94 88 93 94 90 93 91 97 90 88
23 14 11 21 30 25 26 24 25 33 46 57 92 90 100 91 92 88 77 66 99 100 98 70 94 100 80 78 86 94 93 96 100 100 99 97 99 100 99 99 96 97 96 95
19 14 24 26 26 26 30 47 65 66 86 90 92 96 100 92 100 100 87 96 91 99 91 83 98 95 68 74 74 81 91 93 92 100 100 100 100 100 100 99 95 97 97 99
14 13 19 22 27 32 54 92 74 85 99 92 100 100 100 98 100 76 75 94 86 98 89 87 92 85 54 66 73 78 81 84 88 89 94 94 96 97 100 100 98 97 98 98
11 14 26 30 59 88 95 100 92 98 89 87 100 99 96 78 74 67 70 80 97 78 94 91 86 43 51 63 72 72 75 82 83 86 90 93 94 92 98 99 93 97 96 95
19 35 88 92 100 100 100 100 99 88 99 100 100 100 77 71 68 87 72 84 87 84 85 75 66 46 59 66 71 89 81 78 82 76 75 82 90 91 90 92 93 96 87 83
45 51 100 100 94 90 94 99 100 100 100 100 92 84 68 76 84 89 78 73 85 89 81 81 44 59 80 85 88 95 97 94 85 76 82 78 77 79 75 75 87 89 89 90
57 85 81 80 73 78 85 86 91 99 95 84 70 70 85 94 98 76 97 87 87 75 60 59 81 94 94 97 100 100 100 100 100 99 100 100 98 94 92 82 80 82 92 94
60 77 87 83 89 92 89 91 82 87 84 80 71 78 96 87 85 79 91 90 76 70 91 91 96 100 100 100 99 97 100 100 100 100 99 100 100 100 100 100 89 87 90 93
Wind_Speed
27 23 20 12 13 11 8 5 1 4 4 1 2 2 4 3 4 3 2 2 5 5 6 5 5 7 5 10 11 5 4 4 4 8 1 0 3 6 6 6 6 3 2 8
30 26 22 14 13 10 6 4 4 4 6 3 2 1 2 3 4 4 4 4 5 2 6 2 6 4 3 12 9 7 6 2 3 6 4 4 3 4 4 3 3 7 9 7
35 29 23 18 11 10 7 4 1 2 3 3 5 4 3 2 3 3 4 2 3 3 5 4 3 4 3 9 10 9 6 6 8 15 10 5 3 6 6 9 5 11 10 16
36 29 21 20 15 9 6 5 3 4 2 3 3 3 4 3 4 4 5 1 5 5 4 2 5 3 3 7 11 17 5 18 8 16 19 9 15 10 8 12 17 12 16 9
30 23 23 21 16 11 9 5 5 4 4 4 5 4 4 6 2 5 4 4 4 3 5 7 8 6 5 10 5 5 5 15 17 22 20 19 18 17 14 18 19 11 2 7
26 24 22 19 14 13 7 8 7 3 6 5 3 4 3 4 6 2 1 1 1 4 7 15 19 18 18 15 7 10 7 8 9 17 10 11 12 8 12 2 1 2 6 2
27 21 17 14 14 12 5 5 7 6 2 5 4 3 4 5 4 2 3 7 4 3 8 13 15 17 19 18 20 20 11 6 8 12 2 15 3 5 5 3 4 3 3 2
21 19 14 9 6 6 7 9 7 7 3 3 3 1 2 0 2 0 3 7 6 5 4 2 5 3 4 4 1 4 9 7 4 4 7 0 2 4 5 3 2 3 3 4
18 14 11 7 5 7 5 5 7 6 9 3 1 1 2 1 1 3 0 1 5 3 2 1 2 3 3 5 7 4 5 5 2 1 8 12 3 8 11 5 1 3 3 4
16 11 6 6 9 7 6 9 9 6 8 6 4 4 1 2 2 1 2 6 3 1 1 2 3 4 3 2 2 6 4 4 1 4 4 3 8 16 8 2 1 4 5 6
11 8 8 9 12 9 7 10 10 7 8 12 8 6 4 3 3 2 5 3 2 2 1 1 3 1 1 2 1 1 1 1 2 3 2 4 18 2 2 4 4 6 8 9
13 10 12 10 7 7 6 11 9 8 9 14 16 17 14 10 4 2 2 1 3 3 1 0 1 0 2 3 3 2 1 3 2 3 1 4 6 4 5 7 8 9 11 13
14 12 11 10 9 7 3 10 12 10 21 14 6 7 9 8 10 2 2 2 1 2 5 1 1 3 2 2 2 1 2 6 1 1 2 8 4 9 11 9 11 12 12 16
13 15 16 13 10 4 5 13 14 8 11 7 8 6 8 11 14 11 4 11 13 11 2 4 2 2 4 1 2 2 1 6 2 3 3 10 4 16 13 14 13 14 15 16
17 20 15 9 8 8 10 12 11 8 4 6 8 8 10 8 12 17 12 4 3 3 4 5 2 3 4 3 3 2 5 2 0 3 5 6 16 16 15 14 18 19 19 20
20 16 11 11 14 13 12 8 9 10 10 8 3 6 17 6 11 12 18 10 7 7 6 4 4 4 3 2 1 1 9 8 8 6 11 15 14 15 13 20 21 21 21 21
17 12 15 12 9 8 7 6 5 10 8 6 5 3 8 11 11 10 9 12 9 6 5 5 3 6 4 2 1 11 11 11 11 11 13 19 12 23 21 20 22 23 24 24
19 17 16 16 19 25 25 21 9 8 10 9 4 4 4 19 8 6 11 5 6 9 5 3 3 3 3 1 6 11 13 15 10 7 18 21 23 22 22 22 23 25 25 24
18 20 20 18 17 16 15 15 22 15 12 7 6 3 3 16 11 8 5 5 3 5 4 3 2 2 1 5 13 16 16 15 20 23 23 23 22 24 24 24 24 25 26 25
15 10 6 8 8 11 8 6 5 10 12 9 6 10 2 10 9 7 9 5 2 2 2 3 3 3 3 8 13 14 17 20 21 23 25 25 27 26 27 27 26 26 27 26
5 6 8 13 9 6 6 7 10 10 6 8 9 9 6 7 3 3 7 1 3 3 3 2 2 3 5 9 20 20 18 20 20 21 23 24 25 27 28 28 27 27 27 27
11 17 17 8 8 8 10 3 6 8 1 9 8 10 8 6 5 3 7 2 3 1 9 3 3 3 7 14 29 27 21 22 23 22 24 25 25 26 27 29 29 28 28 27
11 7 7 9 10 13 7 6 4 4 9 7 16 9 7 4 4 3 5 5 2 7 3 2 4 7 16 28 33 29 27 26 27 26 25 26 28 27 28 30 30 29 29 28
9 9 8 5 5 3 2 3 4 6 8 16 18 6 5 4 5 3 4 2 2 4 4 4 4 16 35 38 32 31 33 31 31 31 30 30 29 29 30 30 28 27 29 28
9 9 5 4 3 3 4 5 6 5 10 11 5 2 4 5 3 3 2 6 4 3 4 4 22 40 40 38 35 34 34 34 34 32 32 32 30 31 32 30 28 29 29 29
9 11 7 3 1 9 9 11 10 9 8 5 2 2 4 4 1 5 2 3 4 4 7 32 37 38 39 38 37 35 34 33 33 33 33 33 32 31 32 32 32 30 28 28
8 8 11 6 4 5 8 11 14 8 4 3 2 5 4 3 3 3 3 4 4 26 36 40 38 37 40 39 36 35 34 35 34 34 33 33 32 32 33 34 31 28 27 26
Wind_Direction
250 252 253 240 250 251 262 259 240 236 213 86 62 156 188 164 181 177 183 173 205 203 181 211 229 215 216 174 153 165 215 164 228 226 290 110 163 210 181 218 247 225 269 258
246 244 245 218 230 241 244 236 230 237 194 181 210 208 234 215 162 199 166 211 215 162 188 247 201 200 233 173 159 178 186 255 339 312 352 10 211 215 167 149 76 234 252 262
244 239 236 211 213 235 225 213 199 136 161 136 139 155 220 218 198 213 184 196 171 140 208 232 242 217 251 197 206 241 204 191 202 250 235 145 209 224 211 203 224 247 237 259
236 226 205 205 194 210 216 199 204 165 180 195 136 167 163 183 214 205 204 211 209 171 220 250 238 243 279 267 271 272 240 263 227 245 249 215 245 229 198 206 232 229 254 208
209 197 198 193 186 197 213 195 160 133 126 127 130 205 215 198 205 151 235 189 190 152 177 196 245 255 262 256 245 227 225 262 265 270 261 245 242 242 243 229 245 249 137 254
187 187 197 184 174 195 192 184 167 155 148 129 136 219 200 202 162 236 233 188 163 241 251 273 282 281 269 252 243 257 250 258 251 265 274 275 266 262 263 225 8 198 213 223
181 178 175 171 187 188 181 210 174 158 165 177 199 164 186 172 177 186 248 280 183 245 280 291 284 268 261 260 259 247 256 256 270 272 16 275 297 358 350 85 33 358 75 60
163 160 166 161 204 221 215 188 186 162 140 171 190 87 159 295 301 291 253 280 271 279 318 351 321 309 333 270 51 308 250 254 265 258 260 303 87 5 18 353 24 358 43 9
157 163 165 181 210 213 187 169 163 155 130 55 60 76 63 116 42 349 261 322 307 298 204 184 220 250 246 292 331 33 36 33 224 356 275 274 36 339 341 320 235 15 30 1
157 160 172 203 168 168 161 161 169 149 105 48 65 88 102 80 90 194 340 348 335 17 135 221 230 238 190 294 317 331 341 353 153 303 289 92 343 315 321 225 191 354 357 338
153 175 184 135 168 185 174 163 172 166 105 61 75 83 91 78 52 100 345 341 22 343 59 187 250 215 61 83 238 172 86 15 312 280 275 243 351 335 344 340 328 333 333 331
174 155 133 157 177 159 168 158 167 166 113 113 85 75 64 57 48 3 332 258 288 333 107 150 251 98 49 162 255 327 271 187 217 177 289 355 359 48 4 349 335 333 328 327
134 146 142 141 177 165 158 153 155 152 110 107 97 61 50 47 36 352 296 258 316 46 17 44 93 101 306 193 203 170 338 20 194 3 269 333 280 9 354 345 342 330 326 323
132 129 159 164 161 134 147 154 149 141 121 103 54 92 71 47 31 25 315 273 281 280 263 80 60 98 26 114 86 89 270 325 304 273 322 343 211 333 329 325 327 326 319 318
145 156 153 135 125 126 135 145 135 135 118 118 138 67 43 38 29 26 21 28 167 102 74 55 53 80 92 67 71 0 349 243 75 257 327 296 296 314 324 314 319 318 319 316
146 144 117 124 125 127 125 79 90 108 109 107 94 88 41 54 43 30 30 38 64 83 82 73 69 51 109 97 133 325 353 326 302 266 315 314 312 316 317 313 315 313 311 306
140 116 123 124 133 156 81 74 85 106 97 87 99 52 16 23 33 33 28 38 57 71 81 63 48 25 55 75 104 335 335 321 303 280 311 318 307 307 303 304 308 306 302 301
121 112 106 98 99 103 84 65 90 91 82 72 67 334 31 16 0 7 7 25 46 42 79 65 52 30 55 64 311 334 335 328 319 296 302 302 306 303 303 303 306 307 305 309
107 104 101 101 81 67 64 71 67 71 73 89 65 24 296 357 10 355 2 30 53 41 55 28 51 350 33 274 313 318 323 316 309 312 310 313 311 312 312 313 311 310 308 310
117 111 80 62 54 84 76 58 43 38 42 56 56 359 294 346 342 351 4 31 45 64 317 352 66 247 278 339 330 316 320 316 311 307 310 315 315 316 314 313 311 310 311 311
82 64 69 94 76 59 52 54 41 9 45 20 7 357 331 5 1 309 13 210 3 62 295 93 321 294 242 324 337 329 308 317 312 300 300 303 304 308 310 311 311 311 311 309
97 112 97 61 40 47 67 22 15 40 60 358 351 333 321 317 326 317 6 104 30 300 334 66 313 252 301 318 332 326 320 316 317 310 301 303 302 302 305 306 307 308 308 307
84 65 64 20 13 42 54 353 339 0 351 351 336 321 331 327 329 32 22 55 237 313 35 241 233 265 319 323 327 325 325 323 320 317 312 307 306 304 302 302 303 304 303 302
58 46 36 64 6 43 176 201 251 290 295 320 326 316 355 348 3 0 67 236 26 22 8 250 255 319 321 325 326 324 323 321 320 317 315 310 308 305 305 303 304 303 303 304
66 49 57 61 60 14 329 327 312 316 315 323 317 289 344 5 49 31 356 11 345 205 243 246 311 316 321 324 325 321 320 319 316 315 314 313 311 308 307 307 305 303 307 307
65 52 69 63 40 21 29 14 1 353 341 338 343 25 45 15 109 31 193 105 244 261 257 306 311 312 321 323 323 320 319 318 316 315 314 312 310 308 308 306 303 303 303 300
62 52 55 70 36 357 5 4 3 356 355 36 17 53 232 280 12 330 186 215 249 300 301 309 314 311 315 321 321 322 322 320 319 318 316 314 312 309 306 304 309 305 301 298